El Arish, Egypt

7:13 PM EET on September 21, 2017 (GMT +0200)
El Arish

Weather History for HEAR - March, 2013

Change the Weather History Date:

Saturday, March 9, 2013

  Actual Average Record
Temperature  
Mean Temperature 62 °F -  
Max Temperature 70 °F 72 °F - ()
Min Temperature 51 °F 50 °F - ()
Degree Days  
Heating Degree Days 4    
Growing Degree Days 12 (Base 50)    
Moisture  
Dew Point 54 °F    
Average Humidity 78    
Maximum Humidity 100    
Minimum Humidity 32    
Precipitation  
Precipitation 0.00 in 0.02 in - ()
Sea Level Pressure  
Sea Level Pressure 29.92 in    
Wind  
Wind Speed 5 mph ()    
Max Wind Speed 23 mph    
Max Gust Speed -    
Visibility 4.7 miles    
Events      
T = Trace of Precipitation, MM = Missing Value Source: Averaged Metar Reports

Daily Weather History Graph

Daily Weather History Graph

Search for Another Location

Airport or City:

Trip Planner

Search our weather history database for the weather conditions in past years. The results will help you decide how hot, cold, wet, or windy it might be!

Date:

Astronomy

Mar. 09, 2013 Rise Set
Actual Time 6:02 AM EET 5:48 PM EET
Civil Twilight 5:37 AM EET 6:12 PM EET
Nautical Twilight 5:09 AM EET 6:40 PM EET
Astronomical Twilight 4:41 AM EET 7:09 PM EET
Moon 4:04 AM EET (3/9) 3:34 PM EET (3/9)
Length of Visible Light 12h 34m
Length of Day
11h 46m
Waning Crescent, 7% of the Moon is Illuminated
Mar 9
Waning Crescent
Mar 11
New
Mar 19
First Quarter
Mar 27
Full
Apr 3
Last Quarter

Hourly Weather History & Observations

Time (EET) Temp. Dew Point Humidity Pressure Visibility Wind Dir Wind Speed Gust Speed Precip Events Conditions
12:00 AM 59.0 °F 53.6 °F 82% 29.80 in - WSW 5.8 mph - N/A   Clear
1:00 AM 59.0 °F 57.2 °F 94% 29.83 in - West 6.9 mph - N/A   Clear
2:00 AM 58 °F 58 °F 99% 29.83 in 6 mi West 3.5 mph - -   Mostly Cloudy
2:00 AM 59.0 °F 57.2 °F 94% 29.83 in - West 3.5 mph - N/A   Clear
3:00 AM 57.2 °F 57.2 °F 100% 29.83 in - West 3.5 mph - N/A   Clear
4:00 AM 57.2 °F 57.2 °F 100% 29.83 in - WSW 4.6 mph - N/A   Clear
5:00 AM 57.2 °F 57.2 °F 100% 29.86 in - West 5.8 mph - N/A   Clear
6:00 AM 57.2 °F 57.2 °F 100% 29.89 in - West 6.9 mph - N/A   Clear
7:00 AM 57.2 °F 57.2 °F 100% 29.89 in 3.7 mi WSW 5.8 mph - N/A   Mostly Cloudy
8:00 AM 59 °F 59 °F 99% 29.94 in 4 mi WSW 8.1 mph - -   Mist
8:00 AM 59.0 °F 59.0 °F 100% 29.92 in 3.7 mi WSW 8.1 mph - N/A   Mostly Cloudy
9:00 AM 64.4 °F 57.2 °F 77% 29.95 in 3.7 mi West 9.2 mph - N/A   Unknown
10:00 AM 66.2 °F 55.4 °F 68% 29.95 in 5.0 mi WNW 6.9 mph - N/A   Mostly Cloudy
11:00 AM 68.0 °F 53.6 °F 60% 29.95 in 6.2 mi NW 5.8 mph - N/A   Mostly Cloudy
12:00 PM 82.4 °F 50.0 °F 32% 29.89 in 3.7 mi North 23.0 mph - N/A   Unknown
1:00 PM 69.8 °F 50.0 °F 49% 29.92 in 6.2 mi NW 8.1 mph - N/A   Scattered Clouds
2:00 PM 69 °F 48 °F 37% 29.94 in 6 mi NW 8.1 mph - -  
2:00 PM 69.8 °F 48.2 °F 46% 29.92 in - NW 8.1 mph - N/A   Clear
3:00 PM 68.0 °F 50.0 °F 52% 29.92 in - NNW 8.1 mph - N/A   Clear
4:00 PM 68.0 °F 46.4 °F 46% 29.95 in - NNW 6.9 mph - N/A   Clear
5:00 PM 66.2 °F 51.8 °F 60% 29.95 in - North 6.9 mph - N/A   Clear
6:00 PM 62.6 °F 53.6 °F 72% 29.95 in - North 3.5 mph - N/A   Clear
7:00 PM 60.8 °F 53.6 °F 77% 29.98 in - North 2.3 mph - N/A   Clear
8:00 PM 58 °F 51 °F 72% 29.99 in 6 mi Calm Calm - -  
8:00 PM 57.2 °F 51.8 °F 82% 29.98 in - Calm Calm - N/A   Clear
9:00 PM 53.6 °F 51.8 °F 94% 30.01 in - Calm Calm - N/A   Clear
10:00 PM 53.6 °F 50.0 °F 88% 30.01 in 3.7 mi South 2.3 mph - N/A   Unknown
11:00 PM 51.8 °F 51.8 °F 100% 30.01 in 3.7 mi South 4.6 mph - N/A   Unknown